China Lake, CA

2:11 PM PST on January 23, 2018 (GMT -0800)
China Lake NAWS

Weather History for KNID - March, 2012

Change the Weather History Date:

Monday, March 5, 2012

  Actual Average Record
Temperature  
Mean Temperature 57 °F -  
Max Temperature 78 °F 65 °F 78 °F (2012)
Min Temperature 36 °F 40 °F 28 °F (1997)
Degree Days  
Heating Degree Days 8    
Growing Degree Days 7 (Base 50)    
Moisture  
Dew Point 15 °F    
Average Humidity 21    
Maximum Humidity 41    
Minimum Humidity 10    
Precipitation  
Precipitation 0.00 in - - ()
Sea Level Pressure  
Sea Level Pressure 29.99 in    
Wind  
Wind Speed 5 mph (SSW)    
Max Wind Speed 16 mph    
Max Gust Speed 18 mph    
Visibility 10 miles    
Events      
Averages and records for this station are not official NWS values.
T = Trace of Precipitation, MM = Missing Value Source: NWS Daily Summary

Daily Weather History Graph

Daily Weather History Graph

Search for Another Location

Airport or City:

Trip Planner

Search our weather history database for the weather conditions in past years. The results will help you decide how hot, cold, wet, or windy it might be!

Date:

Astronomy

Mar. 05, 2012 Rise Set
Actual Time 6:14 AM PST 5:50 PM PST
Civil Twilight 5:49 AM PST 6:15 PM PST
Nautical Twilight 5:19 AM PST 6:45 PM PST
Astronomical Twilight 4:49 AM PST 7:14 PM PST
Moon 3:17 PM PST (3/5) 4:12 AM PST (3/5)
Length of Visible Light 12h 26m
Length of Day
11h 35m
Waxing Gibbous, 91% of the Moon is Illuminated
Mar 5
Waxing Gibbous
Mar 8
Full
Mar 14
Last Quarter
Mar 22
New
Mar 30
First Quarter

Hourly Weather History & Observations

Time (PST) Temp. Windchill Dew Point Humidity Pressure Visibility Wind Dir Wind Speed Gust Speed Precip Events Conditions
12:56 AM 44.1 °F 40.8 °F 12.9 °F 28% 30.09 in 10.0 mi South 5.8 mph - N/A   Clear
1:56 AM 41.0 °F 35.8 °F 12.9 °F 32% 30.09 in 10.0 mi SSW 8.1 mph - N/A   Clear
2:56 AM 41.0 °F - 12.9 °F 32% 30.07 in 10.0 mi Calm Calm - N/A   Clear
3:56 AM 39.0 °F 34.8 °F 14.0 °F 36% 30.07 in 10.0 mi WSW 5.8 mph - N/A   Clear
4:56 AM 36.0 °F - 12.0 °F 37% 30.06 in 10.0 mi Calm Calm - N/A   Partly Cloudy
5:56 AM 37.0 °F 31.6 °F 15.1 °F 41% 30.08 in 10.0 mi SSW 6.9 mph - N/A   Mostly Cloudy
6:56 AM 37.0 °F - 14.0 °F 39% 30.10 in 10.0 mi Calm Calm - N/A   Mostly Cloudy
7:56 AM 45.0 °F - 16.0 °F 31% 30.12 in 10.0 mi Calm Calm - N/A   Mostly Cloudy
8:56 AM 55.0 °F - 17.1 °F 23% 30.11 in 10.0 mi Calm Calm - N/A   Mostly Cloudy
9:56 AM 61.0 °F - 17.1 °F 18% 30.09 in 10.0 mi Calm Calm - N/A   Mostly Cloudy
10:56 AM 66.9 °F - 16.0 °F 14% 30.06 in 10.0 mi Calm Calm - N/A   Mostly Cloudy
11:56 AM 72.0 °F - 17.1 °F 12% 30.04 in 10.0 mi Variable 4.6 mph - N/A   Overcast
12:56 PM 75.0 °F - 17.1 °F 11% 30.00 in 10.0 mi Variable 3.5 mph - N/A   Overcast
1:56 PM 75.9 °F - 17.1 °F 11% 29.96 in 10.0 mi Variable 5.8 mph - N/A   Overcast
2:56 PM 77.0 °F - 16.0 °F 10% 29.93 in 10.0 mi East 3.5 mph - N/A   Overcast
3:56 PM 78.1 °F - 16.0 °F 10% 29.91 in 10.0 mi North 3.5 mph - N/A   Overcast
4:56 PM 77.0 °F - 15.1 °F 10% 29.89 in 10.0 mi South 12.7 mph 18.4 mph N/A   Mostly Cloudy
5:56 PM 73.9 °F - 16.0 °F 11% 29.88 in 10.0 mi South 12.7 mph - N/A   Mostly Cloudy
6:56 PM 66.0 °F - 10.9 °F 12% 29.89 in 10.0 mi West 6.9 mph - N/A   Mostly Cloudy
7:56 PM 63.0 °F - 15.1 °F 16% 29.88 in 10.0 mi SSW 11.5 mph - N/A   Mostly Cloudy
8:56 PM 63.0 °F - 17.1 °F 17% 29.87 in 10.0 mi South 13.8 mph - N/A   Scattered Clouds
9:56 PM 57.0 °F - 17.1 °F 21% 29.88 in 10.0 mi SSW 3.5 mph - N/A   Scattered Clouds
10:56 PM 61.0 °F - 17.1 °F 18% 29.84 in 10.0 mi SSW 16.1 mph - N/A   Clear
11:56 PM 60.1 °F - 16.0 °F 18% 29.82 in 10.0 mi South 11.5 mph - N/A   Clear